Simultaneous Nadir Overpasses (SNOs) Predictions

Prediction of SNOs between AQUA and METOP-A Satellite Orbit:

Table of predicted SNOs for the next 14.0 days since TLE Epoch: 3/15/2013
Index Date (AQUA) Time (AQUA) Lat,Lon (AQUA) SZA (AQUA ) Date (METOP-A) Time (METOP-A) Lat,Lon (METOP-A) SZA (METOP-A ) Distance(km) Time Diff (sec)
1 03/15/2013 11:48:55 74.00, -3.38 76.05 03/15/2013 11:49:59 74.00, -3.48 76.05 3.07 64
2 03/18/2013 05:44:13 73.70, 88.44 74.64 03/18/2013 05:43:02 73.67, 87.49 74.66 29.87 71
3 03/18/2013 06:33:43 -73.94,-104.45 105.13 03/18/2013 06:33:38 -73.97,-104.49 105.10 3.18 5
4 03/18/2013 07:23:12 74.01, 63.04 74.94 03/18/2013 07:24:16 74.04, 63.03 74.96 3.91 64
5 03/21/2013 01:18:32 73.80, 154.66 73.62 03/21/2013 01:17:20 73.71, 153.98 73.57 23.41 72
6 03/21/2013 02:08:01 -73.98, -38.10 106.21 03/21/2013 02:07:57 -73.96, -38.10 106.23 2.57 4
7 03/21/2013 02:57:30 74.05, 129.38 73.86 03/21/2013 02:58:35 74.03, 129.41 73.83 2.51 65
8 03/23/2013 20:52:50 73.87,-139.07 72.58 03/23/2013 20:51:37 73.79,-139.41 72.53 14.24 73
9 03/23/2013 21:42:18 -74.00, 28.30 107.30 03/23/2013 21:42:15 -73.99, 28.39 107.31 3.03 3
10 03/23/2013 22:31:46 74.02,-164.13 72.72 03/23/2013 22:32:54 74.01,-164.22 72.70 3.11 68
11 03/26/2013 16:27:05 73.88, -72.64 71.47 03/26/2013 16:25:53 73.87, -72.82 71.48 5.83 72
12 03/26/2013 17:16:32 -73.95, 94.85 108.47 03/26/2013 17:16:33 -73.97, 94.74 108.45 3.59 1




NCC Satellite Simultaneous Nadir Overpasses (SNOs) Prediction Service
